Home > Weather > Red Deer > Past weeks

Flag for Canada Weather for the Past 2 Weeks in Red Deer, Alberta, Canada

Now
37 °F

Scattered clouds.


Feels Like: 35 °F
Forecast: 20 / 34 °F
Wind: 3 mph from Northwest

Location: Red Deer

Current Time: Feb 11, 2016 at 2:19:51 PM

Latest Report: Feb 11, 2016 at 1:00 PM


Visibility: 15 mi

Pressure: 30.30 "Hg (27.25 "Hg at 857m altitude)

Humidity: 87%

Dew point: 34 °F

Location of Red DeerLocation

Historic Weather in Red Deer — Graph

°F

Red Deer Temperature Yesterday

Maximum temperature yesterday: 32 °F (at 2:00 PM)
Minimum temperature yesterday: 16 °F (at 4:00 AM)
Average temperature yesterday: 25 °F

High & Low Weather Summary for the Past Weeks

 TemperatureHumidityPressure
High48 °F (Jan 28, 3:00 PM)100% (Jan 31, 6:00 AM)30.56 "Hg (Jan 31, 6:00 AM)
Low-4 °F (Feb 3, 4:00 AM)33% (Feb 6, 4:00 PM)29.38 "Hg (Jan 28, 3:00 PM)
Average24 °F76%30.03 "Hg
* Reported Jan 27 1:00 PM — Feb 11 1:00 PM, Red Deer, Weather by CustomWeather, © 2016

Note: Actual official high and low records may vary slightly from our data, if they occured in-between our weather recording intervals... More about our weather records

Advertising

Red Deer Weather History for the Previous 24 Hours

 ConditionsComfort  
Time TempWeatherWind HumidityBarometerVisibility
1:00 PM
Thu, Feb 11
37 °FScattered clouds.3 mph87%30.30 "Hg15 mi
12:00 PM36 °FScattered clouds.7 mph87%30.30 "Hg10 mi
11:00 AM34 °FFog.5 mph93%30.28 "Hg6 mi
10:00 AM32 °FIce fog.No wind93%30.26 "Hg3 mi
9:00 AM32 °FIce fog.5 mph93%30.25 "Hg3 mi
8:00 AM32 °FLight snow. Ice fog.3 mph100%30.24 "Hg2 mi
7:00 AM32 °FLight freezing rain. Ice fog.5 mph93%30.23 "Hg4 mi
6:00 AM32 °FLight freezing rain. Ice fog.2 mph93%30.19 "Hg3 mi
5:00 AM30 °FLight freezing rain. Ice fog.3 mph100%30.18 "Hg3 mi
4:47 AM30 °FLight freezing rain. Ice fog.3 mph100%30.17 "Hg3 mi
4:00 AM30 °FIce fog.No wind100%30.14 "Hg3 mi
3:00 AM30 °FIce fog.5 mph100%30.14 "Hg1 mi
2:00 AM30 °FIce fog.8 mph100%30.11 "Hg1 mi
1:00 AM30 °FIce fog.7 mph100%30.13 "Hg1 mi
12:00 AM30 °FIce fog.8 mph100%30.13 "Hg1 mi
11:00 PM
Wed, Feb 10
30 °FLight snow. Ice fog.7 mph100%30.12 "Hg2 mi
10:00 PM30 °FLight mixture of precip. Ice fog.7 mph100%30.14 "Hg2 mi
9:00 PM30 °FLight mixture of precip. Ice fog.7 mph100%30.16 "Hg1 mi
8:00 PM30 °FLight freezing rain. Ice fog.7 mph100%30.18 "Hg1 mi
7:00 PM30 °FIce fog.8 mph100%30.17 "Hg1 mi
6:00 PM30 °FIce fog.8 mph100%30.18 "Hg1 mi
5:00 PM30 °FIce fog.10 mph100%30.18 "Hg1 mi
4:00 PM30 °FIce fog.10 mph100%30.17 "Hg2 mi
3:00 PM32 °FIce fog.10 mph93%30.19 "Hg3 mi
2:00 PM32 °FIce fog.10 mph93%30.19 "Hg2 mi
Weather by CustomWeather, © 2016

See weather overviewHow to use our weather pages